Epoch 2010 Mar. 25.0 TT = JDT 2455280.5 T 2010 Apr. 5.67667 TT Rudenko q 2.2680592 (2000.0) P Q z +0.0040834 Peri. 50.49934 -0.21569219 +0.41589453 +/-0.0010967 Node 117.26524 +0.24949879 -0.85125437 e 0.9907386 Incl. 96.33703 +0.94404832 +0.31999648 From 33 observations 2010 Jan. 4-Mar. 15, mean residual 0".7.
m1 = 15.5 + 5 log d + 10.0 log r